This demonstration page uses our WeatherBlox Daily Observations layout. Learn more.

Left ArrowRight Arrow

Hourly Observations for May 14, 2020

Temp ( °F °C ) Dew Point ( °F °C ) Humidity (%) Winds ( mph kmh ) Pressure ( in mb ) Visibility ( mi km ) Precip ( " mm )
12:53 am 00:53 Clear 69 20.6 55 12.8 61 61 SE 14 22 29.71 1006 10 16 0.00 0.00
1:53 am 01:53 Clear 68 20 58 14.4 70 70 SE 14 22 29.71 1006 10 16 0.00 0.00
2:53 am 02:53 Clear 67 19.4 59 15 76 76 SE 14 22 29.70 1006 10 16 0.00 0.00
3:53 am 03:53 Clear 66 18.9 61 16.1 84 84 SE 13 20 29.70 1006 10 16 0.00 0.00
4:53 am 04:53 Clear 67 19.4 63 17.2 87 87 SSE 12 19 29.71 1006 10 16 0.00 0.00
5:53 am 05:53 Clear 65 18.3 63 17.2 93 93 SE 9 15 29.72 1006 9 14 0.00 0.00
6:53 am 06:53 Clear 64 17.8 62 16.7 93 93 SE 6 9 29.74 1007 8 13 0.00 0.00
7:53 am 07:53 Sunny 65 18.3 63 17.2 93 93 SE 7 11 29.77 1008 7 11 0.00 0.00
8:53 am 08:53 Sunny 70 21.1 62 16.7 76 76 S 9 15 29.78 1008 10 16 0.00 0.00
9:53 am 09:53 Sunny 75 23.9 55 12.8 50 50 SW 5 7 29.78 1008 10 16 0.00 0.00
10:53 am 10:53 Sunny 81 27.2 51 10.6 35 35 Calm 29.77 1008 10 16 0.00 0.00
11:53 am 11:53 Sunny 89 31.7 36 2.2 15 15 NW 9 15 29.75 1007 10 16 0.00 0.00
12:53 pm 12:53 Sunny 91 32.8 30 -1.1 11 11 W 12 19 29.74 1007 10 16 0.00 0.00
1:53 pm 13:53 Sunny 92 33.3 32 0 12 12 VRB 3 6 29.71 1006 10 16 0.00 0.00
2:53 pm 14:53 Sunny 94 34.4 32 0 11 11 SW 9 15 29.68 1005 10 16 0.00 0.00
3:53 pm 15:53 Sunny 95 35 31 -0.6 10 10 WSW 13 20 29.66 1005 10 16 0.00 0.00
4:53 pm 16:53 Sunny 94 34.4 30 -1.1 10 10 VRB 7 11 29.64 1004 10 16 0.00 0.00
5:53 pm 17:53 Sunny 93 33.9 30 -1.1 10 10 SW 8 13 29.62 1003 10 16 0.00 0.00
6:53 pm 18:53 Sunny 92 33.3 32 0 12 12 Calm 29.62 1003 10 16 0.00 0.00
7:53 pm 19:53 Sunny 89 31.7 34 1.1 14 14 WNW 8 13 29.63 1003 10 16 0.00 0.00
8:53 pm 20:53 Clear 82 27.8 38 3.3 21 21 NW 7 11 29.65 1004 10 16 0.00 0.00
9:53 pm 21:53 Clear 80 26.7 35 1.7 20 20 Calm 29.66 1004 10 16 0.00 0.00
10:53 pm 22:53 Clear 76 24.4 45 7.2 33 33 Calm 29.67 1005 10 16 0.00 0.00
11:53 pm 23:53 Clear 75 23.9 46 7.8 36 36 Calm 29.68 1005 10 16 0.00 0.00

Powered by AerisWeather